MysteryTwister C3
NUMBER OF ACTIVE MEMBERS:

9593
Follow us: Facebook Twitter
 



Level I Challenges (82)

Page 1 of the challenges in Level I, ordered by date posted (the most recent appear first).

Monoalphabetic Substitution

[esslinger-02] - 466 users already solved this challenge, 157 are working on it.
 
 
 

This is a famous speech of a German soccer star - including a mistake. The codeword consists of 2 words, one after the other with no space. The first is the password used to encrypt the plaintext, and the second is the mistake in the decrypted text. (The plaintext is in German.)
Read more...

Click here to get to the corresponding forum topic to share your opinion.
Click here to download the challenge.

Author: This email address is being protected from spambots. You need JavaScript enabled to view it.
Published on: 2010-10-14 13:30
Maximum number of attempts for this challenge: 15

All successful users of this challenge

Rank User (#466) Achieved points (Global score) y-m-d - h:m:s

Nobody (nobody) 200 (40618) 2010-10-14 13:35:19
Simon Jakob (simon.jakob) 200 (18714) 2010-10-15 01:30:50
No you (lolwhat) 133 (2124) 2010-10-16 17:46:26
John Smith (donnie) 133 (266) 2010-10-16 20:05:16
#5 Oliver Peters (Avian) 133 (266) 2010-10-16 20:09:00
#6 Roadrunner (rr) 133 (12702) 2010-10-16 22:52:17
#7 R H (BartS23) 133 (266) 2010-10-17 01:57:02
#8 Thomas Arend (Byggvir) 133 (266) 2010-10-17 02:49:46
#9 Andreas J. Bathe (ajb) 133 (266) 2010-10-17 07:11:31
#10 Thomas Hansen (norot) 133 (266) 2010-10-17 09:26:10
#11 Michael Ludwig (michaelll) 125 (258) 2010-10-17 13:37:08
#12 Claude Laveaux (claude.laveaux) 125 (14504) 2010-10-17 14:01:57
#13 Colin Benner (Colin) 125 (1413) 2010-10-17 15:03:08
#14 Christian Landvogt (bailli) 125 (250) 2010-10-17 15:33:31
#15 Marcus Eichmüller (Leus) 125 (258) 2010-10-17 17:38:10
#16 Ralf Stephan (rwst) 125 (25229) 2010-10-17 17:50:23
#17 Floyd Hopes (floydhopes) 125 (250) 2010-10-17 18:25:33
#18 a b (fabulous) 125 (250) 2010-10-17 20:36:36
#19 Stephan Gross (okura) 125 (351) 2010-10-17 22:26:19
#20 Daniel Demmler (dd) 125 (125) 2010-10-17 22:37:27
#21 Wonko the Sane (Wonko) 125 (250) 2010-10-18 01:39:50
#22 Thomas Gonda (TomG) 125 (36291) 2010-10-18 11:05:19
#23 Michael Schöller (swtrse) 125 (350) 2010-10-18 11:19:52
#24 J Br (j.br) 125 (3242) 2010-10-18 12:43:33
#25 Tom Erlang (ter85) 125 (1019) 2010-10-18 12:46:16
#26 Benjamin Jemlich (pcgod) 120 (1858) 2010-10-18 13:43:29
#27 Jan Kattelans (JanKat) 120 (245) 2010-10-18 13:45:38
#28 Ernst Müller (MysteriusM) 120 (120) 2010-10-18 14:51:55
#29 Armin Hornetz (Calisan) 120 (245) 2010-10-18 15:02:57
#30 Johannes Krupp (nescio) 120 (245) 2010-10-18 15:24:00
#31 Ben H (benh) 120 (535) 2010-10-18 15:28:55
#32 Jascha Bohnet (DCore) 120 (245) 2010-10-18 15:39:49
#33 Christian Winkel (nordlichtHH) 120 (240) 2010-10-18 17:07:02
#34 David Penack (Qvist) 120 (348) 2010-10-18 17:23:15
#35 Arnold Sendler (Tschighor) 120 (1105) 2010-10-18 18:03:17
#36 Carsten Lenz (kAyCeE80) 120 (460) 2010-10-18 19:26:33
#37 Gilbert Schuster (gil) 120 (245) 2010-10-18 20:22:59
#38 Markus Barwig (Dipol) 120 (240) 2010-10-18 20:30:17
#39 Lam Er (xxlamexx) 120 (240) 2010-10-18 20:40:38
#40 pratipistor (pratipistor) 120 (245) 2010-10-18 21:37:46
#41 Axel Wagner (awag) 120 (240) 2010-10-18 21:41:57
#42 FUgaRU (FUgaRU) 120 (240) 2010-10-18 23:46:44
#43 Hermann Lorenz (gmorek) 120 (240) 2010-10-18 23:55:18
#44 Jan-Hendrik Schöler (mystjhs) 120 (240) 2010-10-19 01:19:54
#45 Sebastian Steinmann (teodoc) 120 (5594) 2010-10-19 02:08:06
#46 Timo Flöttmann (dancey) 120 (240) 2010-10-19 11:47:35
#47 dskajgheri eurzcn (dskajgheri) 120 (240) 2010-10-19 12:52:12
#48 Hans Wurst (LordShaggynator) 117 (242) 2010-10-19 14:00:05
#49 Mr Anonym (the_ettin) 117 (234) 2010-10-19 14:28:45
#50 Sven Hagemann (svehag) 117 (237) 2010-10-19 14:30:53
#51 Philipp Berger (ThE_-_BliZZarD) 117 (354) 2010-10-19 16:30:06
#52 Jascha Koch (yosh) 117 (2201) 2010-10-19 18:46:48
#53 Michael Grau (MiG) 117 (242) 2010-10-19 20:14:02
#54 Martin Schubert (scoob) 117 (351) 2010-10-20 09:12:53
#55 Joachim Protze (joschi) 114 (4877) 2010-10-20 14:04:40
#56 Anibal Kürekci (ak187) 114 (1076) 2010-10-20 23:52:13
#57 Sebastian Roekens (cyphos) 114 (228) 2010-10-21 10:45:17
#58 Mark Weber (mark93) 114 (247) 2010-10-21 11:53:47
#59 Michail Pokryschkin (micpok) 113 (766) 2010-10-22 10:13:39
#60 Dirk Werner (hudray) 111 (933) 2010-10-22 15:04:27
#61 Ansgar (Ansgar) 111 (236) 2010-10-22 16:21:58
#62 Thomas Mattel (Tom) 111 (2462) 2010-10-22 21:11:48
#63 Thomas Loddenkemper (loddi) 110 (243) 2010-10-23 18:49:11
#64 Grinse Katze (Grinsekatze) 109 (964) 2010-10-24 13:47:24
#65 Raistlin (Majere) 109 (352) 2010-10-24 22:18:53
#66 Removed (prodigy) 109 (109) 2010-10-24 23:06:46
#67 Matthias Rottmann (mr66) 109 (594) 2010-10-25 12:44:44
#68 Christoph Orth (orthy) 108 (108) 2010-10-25 15:36:18
#69 Christof Kleber (Loki) 108 (6051) 2010-10-25 17:07:56
#70 Hannes Kremmer (HannesKremmer) 108 (932) 2010-10-25 20:57:22
#71 H. Gregor Molter (cyberdeck) 108 (608) 2010-10-26 14:47:33
#72 Daniel Kovacic (vimix) 108 (336) 2010-10-26 20:58:00
#73 Jörg-Bernd Linnhoff (joberlin) 108 (661) 2010-10-27 12:32:55
#74 Stefan Kühne (subROUTINE) 107 (3595) 2010-10-27 14:37:03
#75 Dennis Heitmann (dennisheitmann) 107 (349) 2010-10-27 16:06:35
#76 Armin Krauss (argh) 107 (185115) 2010-10-27 23:44:13
#77 Martin Kreis (hollemann) 106 (323) 2010-10-29 23:01:34
#78 Markus Brehm (almarkus) 106 (216) 2010-10-30 16:48:02
#79 David (aki321) 105 (27482) 2010-11-01 13:32:35
#80 Gary Hawk (Highlander) 105 (631) 2010-11-03 09:21:15
#81 Bernd Freise (Xanhem) 104 (1154) 2010-11-06 00:13:30
#82 Stephan Schreiber (Zerberus) 104 (524) 2010-11-07 07:15:42
#83 Hans Schuell (hschuell) 104 (2194) 2010-11-07 17:53:58
#84 Carsten Baum (crashti) 104 (1135) 2010-11-08 11:10:46
#85 Ulrich Armbrüster (uarmbruester) 104 (7987) 2010-11-08 17:24:37
#86 Marion Haller (Mary-on) 104 (314) 2010-11-08 21:35:48
#87 Alexander Schneider (schnibbler) 104 (208) 2010-11-09 22:34:41
#88 D Döner (ac715) 104 (313) 2010-11-10 19:11:46
#89 Lars Beckmann (larsbeck) 103 (518) 2010-11-11 21:20:26
#90 Nils Achim Lacke (Babbage) 103 (618) 2010-11-13 14:23:32
#91 Michael Möller (michaelm) 102 (173129) 2010-12-01 21:50:28
#92 Max Mustermann (MustermM) 102 (6661) 2010-12-03 15:46:02
#93 Alex K. (yellowred) 102 (204) 2010-12-08 19:39:27
#94 Hans Rudolf (mutabor) 101 (3015) 2011-01-04 17:58:31
#95 ingo (ingo) 101 (712) 2011-01-04 20:52:42
#96 Wolfgang Weisser (wowmyst) 101 (33108) 2011-01-07 18:33:12
#97 Sebastian (seb) 101 (709) 2011-01-15 18:43:41
#98 Paula Olsen (paol) 101 (825) 2011-01-31 01:09:37
#99 Florian Rüchel (Javex) 101 (721) 2011-01-31 01:51:18
#100 Christine Welsch (krawallchrischtl) 101 (809) 2011-02-04 18:57:07
#101 Jay Bee (jaybee) 101 (1926) 2011-02-07 22:44:58
#102 Fabian Bendun (benfa) 101 (8697) 2011-02-24 21:59:07
#103 Hans Müller (hanschen) 101 (404) 2011-02-28 08:22:35
#104 Christian Nobel (Nobelix) 101 (503) 2011-03-18 12:43:00
#105 rho (rho) 101 (303) 2011-04-02 01:12:35
#106 j.h. (haegarq) 101 (15252) 2011-04-11 16:25:50
#107 Sepp Maier (smai) 101 (1898) 2011-04-17 02:33:28
#108 Case (Case) 101 (505) 2011-04-17 13:49:49
#109 Wombat (Wombat) 101 (5822) 2011-04-23 15:19:32
#110 Marcin Zawadzki (harry007) 101 (3012) 2011-04-29 21:18:23
#111 Egon Hamburger (Seehase) 101 (3445) 2011-05-01 16:16:25
#112 Marc Schmidbauer (BrotInGefahr) 100 (404) 2011-05-08 01:42:48
#113 Muendo (muendo) 100 (3501) 2011-05-08 08:28:15
#114 mad maxx (madmaxx) 100 (300) 2011-05-10 22:17:50
#115 Holti (Holti) 100 (6035) 2011-05-25 19:02:48
#116 thojocro@zehnminutenmail.de (thojocro@zehnminutenmail.) 100 (401) 2011-06-08 00:34:16
#117 Seth Kintigh (DarkFibre) 100 (79471) 2011-06-14 02:31:17
#118 The Killer (Killer) 100 (42393) 2011-06-17 20:41:59
#119 Maurice Parthier (bobthemaster) 100 (705) 2011-07-10 07:33:03
#120 Stefan Haas (stef_the_chef) 100 (4329) 2011-07-11 22:17:44
#121 Peter Mustermann (Gummiboot) 100 (60285) 2011-07-12 11:02:58
#122 Daniel Fretwell (fretty) 100 (30107) 2011-07-15 12:05:05
#123 J P (Cugu) 100 (513) 2011-07-19 22:13:36
#124 Robbt Neid (Das Tupel) 100 (9403) 2011-07-24 20:35:38
#125 Dano (Dano) 100 (14610) 2011-07-30 22:49:51
#126 dbuq (dbuq) 100 (22762) 2011-08-03 17:01:28
#127 Viktor (Veselovský) 100 (151602) 2011-08-12 20:57:52
#128 lbt (lbt) 100 (100) 2011-08-16 01:52:35
#129 Nicolas Golubovic (qll) 100 (14919) 2011-08-16 01:53:16
#130 Qinncade (Qinncade) 100 (2610) 2011-08-17 09:34:11
#131 h3po (h3po) 100 (20433) 2011-08-19 19:07:34
#132 Ph il (audioPhil) 100 (1935) 2011-08-22 23:42:41
#133 Lu Kas (DrunkenPanda) 100 (1835) 2011-08-22 23:43:07
#134 Horst Kevin (lordstege) 100 (1419) 2011-08-28 13:46:24
#135 J. M. (jomandi) 100 (113270) 2011-09-20 23:36:45
#136 Jay Kay (Merty) 100 (3726) 2011-09-25 14:39:46
#137 Anton Wendel (MoD) 100 (5679) 2011-09-28 20:14:29
#138 Gideon Knocke (0xff) 100 (601) 2011-10-13 23:58:41
#139 mister pinball (mister) 100 (200) 2011-10-15 08:09:04
#140 Christian Matt (Luy) 100 (9889) 2011-10-23 04:35:39
#141 Bart den Hartog (Bart13) 100 (118984) 2011-11-01 14:06:14
#142 Lassu Eger (Hun) (slowmouse) 100 (1118) 2011-11-27 12:47:48
#143 Dieter R (D0n Quix0rt) 100 (200) 2011-12-04 20:40:10
#144 Flo Geht_dich gar_nichts_an (flo) 100 (6271) 2011-12-11 02:01:47
#145 Michael Gürtler (michaelg) 100 (4128) 2011-12-15 16:57:35
#146 Nathan (Witten) 100 (25326) 2011-12-16 11:43:49
#147 Tom (kryptom05) 100 (100) 2011-12-27 15:12:42
#148 Matthias Schwarzkopf (MatzeAT) 100 (2967) 2012-01-03 15:09:53
#149 Sabrina Ryser (Sabse15) 100 (506) 2012-01-14 00:25:52
#150 Philipp Knapp (philipp312) 100 (3357) 2012-01-15 13:43:59
#151 Tom Tox (tox) 100 (17708) 2012-01-18 16:30:53
#152 astrid (nellli) 100 (500) 2012-01-31 14:20:08
#153 Michael Sommer (M1S) 100 (635) 2012-01-31 22:38:24
#154 Timo Culmann (TomCat73) 100 (801) 2012-02-08 21:53:30
#155 Simon S. (Simon) 100 (500) 2012-02-09 21:04:10
#156 Ulrich Dorobeck (Papageno) 100 (3827) 2012-02-11 15:15:25
#157 Hans Peter (hanspeter) 100 (52256) 2012-02-14 18:45:27
#158 John (Tiger) 100 (1505) 2012-02-21 00:10:17
#159 Benjamin Walter (Xemrox) 100 (701) 2012-02-26 14:50:46
#160 shaola (shaola) 100 (300) 2012-02-26 15:20:22
#161 Julia Boswell (jb_87) 100 (300) 2012-02-29 22:49:34
#162 Benne (post_ex0dus) 100 (601) 2012-03-01 12:25:25
#163 Sven Ebenfeld (twen) 100 (401) 2012-03-01 23:12:16
#164 Felix Mohr (winterwolf) 100 (2364) 2012-03-05 15:41:17
#165 Kurt Gebauer (Yokozuna) 100 (153663) 2012-03-05 21:49:49
#166 Dusan (xxdradus) 100 (40236) 2012-04-02 13:44:27
#167 H. Lautenschlager (helmi) 100 (32747) 2012-04-20 22:07:51
#168 Uli Dulli (Uli Dulli) 100 (1408) 2012-04-30 19:18:57
#169 Matthias Brand (cyberwoozle) 100 (1896) 2012-05-02 22:09:17
#170 Christof B. (beans90) 100 (9488) 2012-05-05 20:29:21
#171 captp (bdcht) 100 (5864) 2012-05-08 21:51:13
#172 Michel Van Caneghem (vancan) 100 (49719) 2012-06-04 17:08:32
#173 zuben c3 (zuben-c3) 100 (24853) 2012-06-05 11:13:40
#174 Bernd Klimaschewski (cryptonoob) 100 (1003) 2012-06-05 19:42:25
#175 Craig Martek (craigatron) 100 (500) 2012-06-11 00:18:36
#176 Daniel Richter (TheHiveMind) 100 (11147) 2012-06-13 14:04:10
#177 masam (jimboo) 100 (18687) 2012-06-18 17:02:43
#178 Peter Grosse-Hering (Peter) 100 (8097) 2012-06-26 11:46:27
#179 Sebastian Mederle (Thistle) 100 (1202) 2012-06-30 16:53:39
#180 John Simon (aquadraht) 100 (802) 2012-07-03 18:29:49
#181 Manfred Wurm (Tschabobo) 100 (8835) 2012-07-06 18:47:32
#182 Erwin Brenner (Ometheon) 100 (500) 2012-07-06 19:59:20
#183 Sebastian Slupina (Grandwizard) 100 (10866) 2012-07-13 03:17:07
#184 Chakay (Chakay) 100 (900) 2012-07-23 01:39:36
#185 Stepan (m1sterx) 100 (19165) 2012-07-24 19:42:01
#186 Urs Gysler (Sansibar) 100 (3269) 2012-07-26 22:13:57
#187 Max (131x) 100 (1659) 2012-08-08 00:14:32
#188 Victoria Fehr (Rika) 100 (1472) 2012-08-15 15:23:31
#189 Ignacio (Moebiusar) 100 (7390) 2012-08-19 01:25:52
#190 RPH (derichard) 100 (27044) 2012-09-03 21:38:41
#191 tuighin (tuighi) 100 (609) 2012-09-05 21:16:53
#192 KW (qwer*) 100 (13963) 2012-09-06 21:19:01
#193 Hank (hanky) 100 (22859) 2012-09-11 22:12:53
#194 Fitzcarraldo (fitzcarraldo) 100 (907) 2012-09-14 00:48:55
#195 Harry (Schwabenbambi) 100 (2409) 2012-09-17 17:02:37
#196 Hannes (Hartmann) 100 (8680) 2012-09-20 22:46:03
#197 Benny (Kingombo) 100 (3663) 2012-09-22 23:12:01
#198 Martina (Nikita) 100 (3863) 2012-09-24 00:04:48
#199 Paul Pantea (Soarele007) 100 (2695) 2012-10-21 18:28:05
#200 Alexander Dockhorn (Descartes) 100 (1200) 2012-10-24 12:59:19
#201 Christian (md6) 100 (1404) 2012-10-27 20:22:20
#202 Lukas Juhrich (ljuhrich) 100 (5453) 2012-10-31 21:27:11
#203 The Enigma (enigma) 100 (14336) 2012-11-04 01:09:08
#204 Julia Werdelmann (jw) 100 (10407) 2012-11-11 13:25:47
#205 George (Theofanidis) 100 (106715) 2012-11-19 13:38:37
#206 Jan Temme (JaT3) 100 (11694) 2012-12-09 03:34:18
#207 Gary Lee (garylee) 100 (2171) 2012-12-09 15:20:07
#208 Jan (Yazoh) 100 (1000) 2012-12-29 22:58:56
#209 Roger (gonix) 100 (901) 2013-01-01 18:29:05
#210 Thomas Hahn (4OsoCg31XYcO) 100 (1703) 2013-01-09 23:27:12
#211 kevin shaw (steggily) 100 (2298) 2013-01-16 17:39:33
#212 Iain Sharp (WoodenHedgehog) 100 (2196) 2013-01-16 17:40:56
#213 Daniel Hofer (Dada963) 100 (1001) 2013-01-27 15:52:23
#214 Michal (misoxxx) 100 (1710) 2013-02-05 18:46:06
#215 Snake (snk) 100 (77889) 2013-02-24 17:29:34
#216 Frans (fransl) 100 (2233) 2013-02-28 13:38:29
#217 Franc Marx (francmarx) 100 (900) 2013-03-12 09:50:02
#218 Hans Joachim Girulat (joregi) 100 (33593) 2013-03-13 23:05:03
#219 Velko Nikolov (staafl) 100 (13467) 2013-03-28 18:04:58
#220 Luigi Tomelli (archstanton) 100 (108345) 2013-04-01 15:08:27
#221 mk (bilbobeutlin) 100 (12340) 2013-04-03 22:43:14
#222 Ramon Rojas (superme) 100 (3409) 2013-04-14 05:04:22
#223 Petra (humppapenguin) 100 (3872) 2013-04-17 15:21:12
#224 swarmspider (swarmspider) 100 (4528) 2013-04-18 13:50:25
#225 Oliver Schneider (cenn81) 100 (1100) 2013-04-22 23:32:11
#226 Rolf (Dupre) 100 (700) 2013-04-23 13:09:51
#227 Almut (problelmo) 100 (45992) 2013-04-23 21:04:04
#228 Bernhard Gruber (bgr) 100 (22889) 2013-04-24 11:21:03
#229 Michael Reich (Walli) 100 (2288) 2013-04-24 14:02:34
#230 Frederik (Freed) 100 (900) 2013-04-24 21:37:30
#231 Stefan (sdn) 100 (5137) 2013-04-25 14:11:25
#232 Step (l0rdp3rth) 100 (836) 2013-04-25 14:33:54
#233 Philipp (Kohai) 100 (2208) 2013-04-25 15:59:54
#234 Brian Tawney (btawney) 100 (500) 2013-04-27 23:33:22
#235 Y (Yoshio) 100 (2194) 2013-04-28 14:51:31
#236 HE (hendeng) 100 (1600) 2013-05-03 15:57:03
#237 Felix (Flix) 100 (13712) 2013-05-06 17:19:25
#238 Jörg Schwarzwälder (secuso) 100 (2125) 2013-05-08 22:46:35
#239 Georgius Stolte (HazmatsFear) 100 (15671) 2013-05-11 08:58:46
#240 Hansemann (hansemak) 100 (3522) 2013-05-13 16:46:29
#241 Fuge (fugitech) 100 (917) 2013-05-19 23:04:04
#242 Alexander Buerger (a.buerger) 100 (2332) 2013-05-23 14:33:15
#243 CryptY (Grompf) 100 (2880) 2013-05-28 17:26:17
#244 Peter Krause (H.M.Voynich) 100 (900) 2013-06-04 15:37:02
#245 E.T (Ertheb) 100 (78180) 2013-06-13 11:26:23
#246 Friedemann (friede) 100 (3599) 2013-06-26 17:33:00
#247 Steve (Samacian) 100 (23804) 2013-06-28 15:23:05
#248 Laura (Weltenwandlerin) 100 (1004) 2013-06-29 21:16:28
#249 Sascha (DoctorHell) 100 (1305) 2013-07-09 23:08:43
#250 Vlatiha Romanova (Vlatiha) 100 (10323) 2013-07-15 16:17:06
#251 Philipp Hammer-Pohlau (phase2) 100 (17981) 2013-07-18 09:15:02
#252 Gronas (gronas) 100 (2667) 2013-07-21 18:52:12
#253 Forrest Gump (Polyphem) 100 (38763) 2013-07-24 23:07:56
#254 zahir mohsen moradi (ariobarzan) 100 (99757) 2013-08-05 21:29:03
#255 Em Doulgerakis (Greko) 100 (124033) 2013-08-08 14:45:30
#256 Andreas H. (Cyrpius) 100 (2666) 2013-08-15 20:36:20
#257 Stefan Schenk (schenkst) 100 (300) 2013-08-17 00:24:50
#258 Sebastian Kluge (zappo) 100 (1801) 2013-09-02 18:04:31
#259 Andreas Wolff (timberwolff) 100 (1340) 2013-09-08 12:19:35
#260 Alexander (cruachan) 100 (16051) 2013-09-14 01:42:56
#261 Gergely Simon (george314) 100 (16555) 2013-09-27 01:10:57
#262 Erich (ErichSt) 100 (4862) 2013-09-29 17:39:29
#263 Jens (McStryke) 100 (1600) 2013-10-23 21:27:20
#264 netzfritze (netzfritze) 100 (700) 2013-10-25 10:58:36
#265 Boris (Kaasu) 100 (16566) 2013-10-31 16:36:31
#266 Alexx (Nukualofa) 100 (100) 2013-10-31 20:44:22
#267 Hannes Nötzli (Faust) 100 (4781) 2013-11-07 14:44:08
#268 Bernd (Bughunter42) 100 (1100) 2013-11-14 11:41:24
#269 Zakk (zjacreman) 100 (500) 2013-11-19 05:36:28
#270 Claudi (bucaneros) 100 (701) 2013-11-24 19:43:34
#271 pablo (cooltrain) 100 (1500) 2013-11-26 21:05:18
#272 qwertz (pA8PFj6BGpZlUN0ddLYq) 100 (800) 2013-11-29 16:17:40
#273 Jim Gillogly (Scryer) 100 (21260) 2013-12-01 21:37:16
#274 artmagic (artmagic) 100 (6298) 2013-12-05 16:22:20
#275 Francisco Moraes (fmoraes) 100 (90044) 2013-12-10 17:46:52
#276 Mike (mike123) 100 (500) 2013-12-11 22:40:55
#277 cworstell (ace2) 100 (4870) 2013-12-12 04:49:42
#278 George Lasry (george4096) 100 (299488) 2013-12-12 17:02:19
#279 Alain (Integral) 100 (207924) 2013-12-14 19:56:07
#280 Kim H. S. (tenchijin) 100 (25468) 2013-12-26 08:20:40
#281 daskleine (daskleine123) 100 (2148) 2013-12-28 19:49:47
#282 Csaba Fitzl (csaby) 100 (6696) 2013-12-29 22:15:43
#283 Bertold (bk) 100 (9673) 2013-12-30 15:05:42
#284 Pavel (haw) 100 (22728) 2014-01-01 20:14:30
#285 Sebastian Liebl (Basti van Tasti) 100 (2548) 2014-01-05 11:35:06
#286 Stefan Reek (GeneralFailure) 100 (300) 2014-01-12 18:57:49
#287 Felix Eckardt (Felck) 100 (3464) 2014-01-20 00:09:22
#288 Merlin de la Haye (Merlin) 100 (700) 2014-01-20 18:21:04
#289 Dominik (Pistol) 100 (700) 2014-01-21 01:18:05
#290 Josef Gillhuber (jogimi51) 100 (2446) 2014-01-22 00:29:16
#291 Marcel (bene1512) 100 (20896) 2014-01-30 19:56:12
#292 Flo (0knowledge) 100 (902) 2014-02-02 22:19:07
#293 Flo (sealth) 100 (13472) 2014-02-08 21:27:01
#294 Nofre Tete (noffi) 100 (21921) 2014-02-09 18:43:56
#295 schloenz (shlnz) 100 (900) 2014-02-10 00:21:34
#296 Mepo (Marshall) 100 (1000) 2014-02-11 19:59:19
#297 Sascha (The Hoddich) 100 (4350) 2014-02-21 12:33:50
#298 Joerg Schaeffler (DrAcula) 100 (2948) 2014-03-06 11:53:28
#299 Karl Schutt (günter) 100 (41550) 2014-03-23 18:50:52
#300 Siggi Kraus (Kruxi) 100 (701) 2014-04-24 20:51:09
#301 Joe (IlmJoe) 100 (2938) 2014-05-06 14:48:54
#302 Matthias (mrcreosote) 100 (1100) 2014-05-16 15:08:28
#303 Thomas Schmucker (dg) 100 (26066) 2014-05-30 15:29:30
#304 Simone (Momo) 100 (5478) 2014-06-07 22:17:12
#305 HerrVo (HerrVo) 100 (1000) 2014-06-10 17:49:01
#306 Jian Wen (XxWappenxX) 100 (4048) 2014-06-16 15:35:55
#307 Armin Eckert (eckert100@gmail.com) 100 (900) 2014-06-21 19:17:53
#308 Julia Bernotat (El Greco ) 100 (81129) 2014-07-16 22:08:16
#309 julius gaius (julius) 100 (25581) 2014-07-19 18:04:26
#310 Hughes (hughes) 100 (7925) 2014-07-27 17:11:58
#311 Robert (rm) 100 (56475) 2014-07-31 23:48:50
#312 Tiloan (Tiloan) 100 (3840) 2014-08-17 12:30:45
#313 Andreas Frerichs (Ossili) 100 (33266) 2014-08-22 09:22:36
#314 Ekrem Aydin (Eko115) 100 (1105) 2014-08-30 22:32:29
#315 Peter Lustig (arsen) 100 (2838) 2014-09-01 07:36:53
#316 Isabella (Isa) 100 (4235) 2014-09-01 19:24:10
#317 Dmitry (DmitryMikhailov) 100 (1300) 2014-09-05 19:31:49
#318 Falk Fleischer (fafl) 100 (200) 2014-09-09 14:52:46
#319 Kerstin (herzchen412) 100 (3937) 2014-09-17 12:08:15
#320 testgrr (testgrr) 100 (3940) 2014-10-05 11:35:50
#321 Lane Williams (planetlane) 100 (23948) 2014-10-18 23:28:19
#322 Señor Saturn (senorsaturn) 100 (3344) 2014-10-20 23:27:49
#323 jej (stationz) 100 (4939) 2014-11-09 14:07:42
#324 HolgerK (HolgerK) 100 (25776) 2014-11-21 20:21:30
#325 Tim Fink (Magellan) 100 (4876) 2014-12-12 22:03:25
#326 ab (ababab) 100 (200) 2014-12-16 22:30:23
#327 Danny Higgins (hamster147) 100 (31494) 2014-12-28 10:02:47
#328 DirkS (Dustman) 100 (8479) 2014-12-29 12:47:26
#329 Nik Maks (nik) 100 (1201) 2015-01-02 09:39:41
#330 Kai Ludwig (TalentRaspel) 100 (15704) 2015-01-05 00:20:47
#331 Rainer Zufall (kiekuk) 100 (56786) 2015-02-22 20:28:37
#332 WF (f077) 100 (6874) 2015-02-23 18:36:16
#333 chris_3stones (3stones) 100 (37759) 2015-02-28 10:31:49
#334 c u (chuiuiui) 100 (100) 2015-03-27 23:57:57
#335 Brian Kieslich (briank) 100 (6733) 2015-04-03 14:25:36
#336 S (Dingo_the_BB) 100 (6534) 2015-04-05 21:06:02
#337 Creat1veM1ind (sokrates) 100 (2639) 2015-04-08 21:20:26
#338 Mike (Buckte) 100 (1621) 2015-04-11 22:56:23
#339 Martin Schulz (Kristallseele) 100 (2122) 2015-04-15 16:12:42
#340 Gabriel (Gabriel) 100 (400) 2015-04-15 19:35:22
#341 Kurkowski (ThomasK) 100 (2327) 2015-05-02 09:57:30
#342 Mehmet Adali (mehmetadali) 100 (2620) 2015-05-14 00:11:45
#343 partamier (yann) 100 (5435) 2015-05-15 14:56:41
#344 Ethan (EESearch) 100 (3925) 2015-05-22 20:03:57
#345 Michael Ammon (Ammonym) 100 (7719) 2015-05-24 02:35:27
#346 sam (sam) 100 (800) 2015-06-10 15:46:00
#347 Defekt75 (Defekt75) 100 (4325) 2015-06-12 21:24:27
#348 Mark van Heeswijk (markvh) 100 (2600) 2015-07-05 18:38:33
#349 Erik (Erox) 100 (22651) 2015-07-12 12:52:03
#350 Tradecraft (Tradecraft) 100 (5540) 2015-07-16 17:26:17
#351 sn0c (sn0c) 100 (200) 2015-08-03 21:35:25
#352 Peter Grössing (gpe) 100 (300) 2015-08-11 13:54:45
#353 Javantea (Javantea) 100 (40816) 2015-08-15 02:48:46
#354 Peter (TomBombadil) 100 (3417) 2015-08-31 12:08:01
#355 Sirius (Leznar) 100 (4552) 2015-09-08 15:13:57
#356 Joerg G. (SnifferMaster) 100 (18154) 2015-09-13 12:31:35
#357 Michael Jeffrey (empjay) 100 (3004) 2015-10-01 15:02:44
#358 J-L Morel (Rossignol) 100 (29125) 2015-10-06 15:11:43
#359 BananaJoee (BananaJoee) 100 (2515) 2015-10-06 23:06:46
#360 Martin (martinbucher) 100 (27363) 2015-10-24 14:47:36
#361 Szabó Zoltán (szabo.z87) 100 (55604) 2015-10-29 11:49:26
#362 S (Zyphe) 100 (10461) 2015-10-30 15:13:43
#363 Alain Collignon (vexilla72) 100 (87833) 2015-11-15 07:58:33
#364 Benjamin (Knorrke) 100 (1915) 2015-11-26 21:36:50
#365 Rainer (Rainer74) 100 (8417) 2015-12-04 21:38:19
#366 Joog (Joog) 100 (1208) 2015-12-07 15:57:45
#367 Andre Mueller (amueller) 100 (3215) 2015-12-19 21:38:27
#368 Andreas M (Diracspinor) 100 (600) 2015-12-21 15:04:08
#369 Dominik M. (Sgt. Pepper) 100 (97919) 2015-12-21 15:05:34
#370 T (Wagner) 100 (16887) 2015-12-22 19:40:18
#371 Marc (rcll0891) 100 (24004) 2016-01-03 17:08:13
#372 Daniel Neubacher (dneubacher) 100 (2413) 2016-01-06 17:28:57
#373 Casaubon (cfreuden) 100 (8515) 2016-01-11 10:19:21
#374 Michael (soilfront) 100 (2617) 2016-02-03 19:09:39
#375 D (devilchn) 100 (11142) 2016-02-04 16:19:19
#376 Thomas Bartscherer (Cipher) 100 (405) 2016-02-04 18:09:21
#377 Maria (julesjulchen) 100 (3019) 2016-02-22 12:58:06
#378 Peter (Garnet) 100 (14234) 2016-03-07 21:25:59
#379 Marco Manfredi (mkk9901) 100 (17686) 2016-03-09 08:59:27
#380 SMF (SMF) 100 (2208) 2016-03-12 19:34:55
#381 Lennart (Penthesilea) 100 (4110) 2016-04-16 21:15:57
#382 Wieland (wisch) 100 (6633) 2016-05-21 18:58:46
#383 Daniel Walder (ibex) 100 (14372) 2016-05-31 14:24:29
#384 Joris Diesvelt (SylverFox) 100 (4019) 2016-06-30 22:13:28
#385 Norbert Biermann (Norbert) 100 (45031) 2016-07-06 19:57:53
#386 mjustprocrastinating (kb) 100 (2116) 2016-07-15 23:30:54
#387 Benjamin Snavely (kaka) 100 (2708) 2016-08-06 21:44:42
#388 Chris Kolonko (ckolonko) 100 (900) 2016-08-09 18:47:00
#389 Martina (BonoV) 100 (3017) 2016-08-13 22:55:22
#390 Hajoe (Tintin-Muc) 100 (6923) 2016-08-14 23:15:55
#391 W.E. (NeoVenator) 100 (3005) 2016-08-20 21:04:51
#392 JoGo (JoGo) 100 (11686) 2016-08-28 15:06:32
#393 John Felix (johnf) 100 (3705) 2016-09-15 14:38:26
#394 Nicolas (nicosPavlov) 100 (151166) 2016-09-29 12:53:32
#395 Mirko Rendey (Biork) 100 (6595) 2016-10-04 12:20:00
#396 HeinzelMann (Ohm) 100 (5295) 2016-10-04 12:20:12
#397 Darchicourt (Darki) 100 (3308) 2016-10-17 13:34:08
#398 Christina Plump (1cc91) 100 (100) 2016-11-08 20:28:59
#399 Tristan1473 (Tristan1473) 100 (18914) 2016-11-09 12:20:35
#400 Michael (FoM) 100 (34465) 2016-11-16 22:07:29
#401 Julian (Lemmynator) 100 (16666) 2016-11-20 14:02:20
#402 Grigorios (grigorios) 100 (2205) 2016-12-03 22:39:28
#403 Imam Uasa (Merricx) 100 (9188) 2016-12-12 18:04:16
#404 Steffen (stmue) 100 (2911) 2016-12-16 09:32:51
#405 Meine Registrierung (TryC3) 100 (6045) 2016-12-26 17:48:34
#406 Nicholas (nichelfish) 100 (2205) 2016-12-29 19:17:27
#407 J@cK (J@cK) 100 (3800) 2017-01-20 11:30:12
#408 Rene (ion) 100 (5617) 2017-02-26 10:08:51
#409 Mir Dim (mir0soft) 100 (72404) 2017-03-10 14:18:33
#410 chris (c2) 100 (51973) 2017-03-11 12:17:45
#411 Nimsoo Sun (Nimsoosun) 100 (2518) 2017-03-13 20:27:45
#412 koaidien (koaidien) 100 (2215) 2017-03-17 02:50:52
#413 Chicken Attack (joker1569) 100 (2603) 2017-03-21 09:15:16
#414 sarah b (silva) 100 (18511) 2017-03-21 18:25:43
#415 Julian (guenni3000) 100 (500) 2017-04-01 22:52:05
#416 D3d4lu5 (D3d4lu5) 100 (273573) 2017-06-09 19:02:23
#417 Moomin (Mushmom) 100 (7674) 2017-07-14 23:56:56
#418 Akonia (Akonia12) 100 (12153) 2017-07-17 18:11:29
#419 Immo Weber (MandelToast) 100 (10061) 2017-08-05 23:37:39
#420 Godfrey Norton (Godfrey) 100 (8162) 2017-08-06 04:53:06
#421 kaktus16 (Sabine) 100 (500) 2017-08-17 14:45:44
#422 David (n1to) 100 (200) 2017-08-28 22:49:31
#423 Martin (Ehmpunkt) 100 (700) 2017-08-29 17:39:23
#424 nurnicu (nurnicu) 100 (1200) 2017-09-11 11:32:04
#425 Dennis Busch (0xDB) 100 (3693) 2017-09-24 18:26:48
#426 Andreas Zipse (zippi0815) 100 (3295) 2017-11-02 14:32:49
#427 Handrich (Handrich) 100 (3494) 2017-11-16 17:48:02
#428 nimroth (nimroth cynthor) 100 (6021) 2017-11-18 11:40:48
#429 teetrnker (teetrinker) 100 (2399) 2018-01-02 20:47:02
#430 Mihail (plexor) 100 (16827) 2018-02-01 16:08:27
#431 Julian (Ju1703) 100 (4190) 2018-02-21 10:11:25
#432 aysxdcfv (aysxdcfv) 100 (600) 2018-02-21 10:49:18
#433 ich (whoma) 100 (2299) 2018-02-21 22:32:59
#434 Jhoana Reichert (15faustino) 100 (1724) 2018-03-12 22:55:56
#435 Jrox (jrox) 100 (601) 2018-03-27 18:28:15
#436 Luciano Ignaczak (ignaczak) 100 (3390) 2018-03-30 05:02:14
#437 Steve Vaillancourt (stvai2) 100 (15041) 2018-04-28 22:30:45
#438 Lara Riegelhofer (larrow_sparrow) 100 (2798) 2018-05-12 15:05:50
#439 Eric (ExAstris) 100 (26990) 2018-05-15 20:26:44
#440 Benjamin (200611736) 100 (10186) 2018-05-28 17:37:09
#441 Christian (MarquisDeSud) 100 (5674) 2018-05-29 15:50:51
#442 Fedilia (Fedilia) 100 (4489) 2018-06-08 19:10:16
#443 Random Dude (rnd) 100 (83811) 2018-06-20 03:27:10
#444 Arbacle Clemens (arbacle) 100 (2502) 2018-07-21 23:06:47
#445 Yggi (Yggi) 100 (2295) 2018-10-02 10:20:38
#446 phoenix1204 (phoenix1204) 100 (1800) 2018-10-27 08:44:22
#447 Manfred Paul (manf) 100 (14774) 2018-11-13 22:36:07
#448 Clemens (16dombrowski) 100 (5136) 2018-12-08 14:54:26
#449 whitecowboy (whitecowboy) 100 (7446) 2018-12-21 17:24:25
#450 steven (steven18) 100 (3091) 2018-12-22 07:04:30
#451 Max (Max123) 100 (100) 2019-01-07 18:08:27
#452 Bertolo (Bertolo) 100 (7167) 2019-01-13 13:05:33
#453 Joe Doe (tr_joedoe) 100 (1600) 2019-01-20 21:03:14
#454 Kevin Weber (ThunderArmy) 100 (7783) 2019-02-05 20:45:54
#455 madness (madness) 100 (15407) 2019-02-13 06:35:00
#456 LoneWolf219 (LoneWolf219) 100 (12795) 2019-02-17 01:43:18
#457 Pierre Robier (tripleedged) 100 (5916) 2019-02-18 19:45:29
#458 Oliver H (AlfheriH) 100 (804) 2019-02-25 10:22:10
#459 Lia (Lia) 100 (6855) 2019-03-08 17:57:09
#460 Klaus (kumaus) 100 (21415) 2019-03-13 17:21:15
#461 Jurian (Jurian95) 100 (2793) 2019-03-29 19:12:05
#462 Philipp John (Menarian) 100 (1793) 2019-04-12 11:37:34
#463 r karoly (r_karoly) 100 (4078) 2019-05-05 21:08:54
#464 Mike (RogueRamblers) 100 (12437) 2019-05-16 00:56:28
#465 Aeon (dokyriak) 100 (3481) 2019-05-21 16:52:55
You must be logged in to solve the challenge
Pages [1] 1 Show All  
 
 
powered by the CrypTool project  CrypTool

 

   +++    [11:29 - 24.05.2019] dokyriak solved the Level II challenge 'Cracking SHA1-Hashed Passwords'    +++    [11:16 - 24.05.2019] dokyriak solved the Level I challenge 'Factorization Cipher — Part 1'    +++    [23:00 - 23.05.2019] Theofanidis solved the Level II challenge 'Handycipher made in love — Part 2'    +++    [19:57 - 23.05.2019] joregi solved the Level I challenge 'Autokey Cipher'    +++    [15:18 - 23.05.2019] Biork solved the Level I challenge 'A modified homophonic cipher with reduced alphabets — Part 1'    +++